TimeCDT,TemperatureF,Dew PointF,Humidity,Sea Level PressureIn,VisibilityMPH,Wind Direction,Wind SpeedMPH,Gust SpeedMPH,PrecipitationIn,Events,Conditions,WindDirDegrees,DateUTC
12:15 AM,73.2,58.5,60,29.95,10.0,Calm,Calm,-,N/A,,Clear,0,2013-07-14 05:15:00
12:35 AM,72.3,58.8,62,29.95,10.0,Calm,Calm,-,N/A,,Clear,0,2013-07-14 05:35:00
12:55 AM,70.7,59.0,66,29.95,10.0,Calm,Calm,-,N/A,,Clear,0,2013-07-14 05:55:00
1:15 AM,71.4,59.0,65,29.94,10.0,Calm,Calm,-,N/A,,Clear,0,2013-07-14 06:15:00
1:35 AM,70.9,59.0,66,29.92,10.0,Calm,Calm,-,N/A,,Clear,0,2013-07-14 06:35:00
1:55 AM,70.0,59.0,68,29.92,10.0,Calm,Calm,-,N/A,,Clear,0,2013-07-14 06:55:00
2:15 AM,69.8,59.5,70,29.92,10.0,Calm,Calm,-,N/A,,Clear,0,2013-07-14 07:15:00
2:35 AM,69.8,59.9,71,29.91,10.0,Calm,Calm,-,N/A,,Clear,0,2013-07-14 07:35:00
2:55 AM,69.4,60.8,74,29.91,10.0,Calm,Calm,-,N/A,,Clear,0,2013-07-14 07:55:00
3:15 AM,69.1,60.6,74,29.91,10.0,Calm,Calm,-,N/A,,Clear,0,2013-07-14 08:15:00
3:35 AM,69.1,60.3,73,29.92,10.0,Calm,Calm,-,N/A,,Clear,0,2013-07-14 08:35:00
3:55 AM,69.8,60.4,72,29.94,10.0,Calm,Calm,-,N/A,,Clear,0,2013-07-14 08:55:00
4:15 AM,71.6,61.0,69,29.94,10.0,Calm,Calm,-,N/A,,Clear,0,2013-07-14 09:15:00
4:35 AM,71.8,61.3,70,29.93,10.0,ENE,3.5,-,N/A,,Clear,60,2013-07-14 09:35:00
4:55 AM,72.5,62.1,70,29.94,10.0,Calm,Calm,-,N/A,,Scattered Clouds,0,2013-07-14 09:55:00
5:15 AM,72.5,62.2,70,29.95,10.0,East,4.6,-,N/A,,Mostly Cloudy,90,2013-07-14 10:15:00
5:35 AM,72.5,62.6,71,29.95,10.0,East,5.8,-,N/A,,Mostly Cloudy,80,2013-07-14 10:35:00
5:55 AM,72.5,62.6,71,29.96,10.0,East,5.8,-,N/A,,Mostly Cloudy,80,2013-07-14 10:55:00
6:15 AM,72.5,62.6,71,29.97,10.0,East,4.6,-,N/A,,Scattered Clouds,90,2013-07-14 11:15:00
6:35 AM,72.1,62.8,72,29.96,10.0,East,4.6,-,N/A,,Scattered Clouds,90,2013-07-14 11:35:00
6:55 AM,72.1,63.0,73,29.95,10.0,Calm,Calm,-,N/A,,Scattered Clouds,0,2013-07-14 11:55:00
7:15 AM,72.5,63.0,72,29.95,10.0,Calm,Calm,-,N/A,,Scattered Clouds,0,2013-07-14 12:15:00
7:35 AM,72.9,63.3,72,29.94,10.0,ESE,3.5,-,N/A,,Clear,120,2013-07-14 12:35:00
7:55 AM,73.8,63.5,70,29.94,10.0,ESE,4.6,-,N/A,,Clear,110,2013-07-14 12:55:00
8:15 AM,74.8,63.7,68,29.95,10.0,East,4.6,-,N/A,,Clear,100,2013-07-14 13:15:00
8:35 AM,75.9,63.9,66,29.96,10.0,ESE,3.5,-,N/A,,Clear,110,2013-07-14 13:35:00
8:55 AM,76.1,64.0,66,29.97,10.0,East,4.6,-,N/A,,Clear,80,2013-07-14 13:55:00
9:15 AM,76.5,64.0,65,29.97,10.0,East,3.5,-,N/A,,Clear,100,2013-07-14 14:15:00
9:35 AM,77.0,64.0,64,29.96,10.0,ESE,4.6,-,N/A,,Clear,120,2013-07-14 14:35:00
9:55 AM,77.2,63.7,63,29.97,10.0,SE,4.6,-,N/A,,Clear,140,2013-07-14 14:55:00
10:15 AM,77.4,63.5,62,29.98,10.0,ESE,4.6,-,N/A,,Clear,110,2013-07-14 15:15:00
10:35 AM,78.3,63.5,60,29.98,10.0,SE,4.6,-,N/A,,Clear,130,2013-07-14 15:35:00
10:55 AM,79.2,63.5,59,29.99,10.0,SSE,6.9,-,N/A,,Clear,150,2013-07-14 15:55:00
11:15 AM,79.9,63.7,58,30.00,10.0,SSE,6.9,-,N/A,,Scattered Clouds,150,2013-07-14 16:15:00
11:35 AM,80.1,63.5,57,30.01,10.0,East,4.6,-,N/A,,Mostly Cloudy,100,2013-07-14 16:35:00
11:55 AM,79.7,63.5,58,30.01,10.0,ENE,4.6,-,N/A,,Overcast,70,2013-07-14 16:55:00
12:15 PM,79.9,63.5,57,30.01,10.0,Calm,Calm,-,N/A,,Overcast,0,2013-07-14 17:15:00
12:35 PM,80.8,63.0,54,30.00,10.0,SSE,3.5,-,N/A,,Scattered Clouds,150,2013-07-14 17:35:00
12:55 PM,81.3,63.3,54,29.99,10.0,SSE,6.9,-,N/A,,Clear,150,2013-07-14 17:55:00
1:15 PM,80.8,63.9,56,29.99,10.0,South,3.5,-,N/A,,Clear,180,2013-07-14 18:15:00
1:35 PM,81.3,63.9,55,29.99,10.0,SE,3.5,-,N/A,,Clear,140,2013-07-14 18:35:00
1:55 PM,81.7,63.9,55,29.97,10.0,SE,3.5,-,N/A,,Clear,130,2013-07-14 18:55:00
2:15 PM,81.9,64.4,55,29.97,10.0,East,3.5,-,N/A,,Clear,100,2013-07-14 19:15:00
2:35 PM,81.3,64.4,56,29.97,10.0,ESE,5.8,-,N/A,,Mostly Cloudy,110,2013-07-14 19:35:00
2:55 PM,81.5,64.4,56,29.97,10.0,North,-9999.0,-,N/A,,Overcast,0,2013-07-14 19:55:00
3:15 PM,81.9,63.9,54,29.96,10.0,North,-9999.0,-,N/A,,Overcast,0,2013-07-14 20:15:00
3:35 PM,81.5,63.7,55,29.96,10.0,North,-9999.0,-,N/A,,Overcast,0,2013-07-14 20:35:00
3:55 PM,81.0,64.0,56,29.96,10.0,ENE,5.8,-,N/A,,Overcast,60,2013-07-14 20:55:00
4:15 PM,80.8,63.9,56,29.95,10.0,SSE,3.5,-,N/A,,Overcast,150,2013-07-14 21:15:00
4:35 PM,81.3,64.4,56,29.96,10.0,SSE,3.5,-,N/A,,Mostly Cloudy,150,2013-07-14 21:35:00
4:55 PM,80.6,64.6,58,29.95,10.0,East,4.6,-,N/A,,Mostly Cloudy,90,2013-07-14 21:55:00
5:15 PM,80.6,64.9,59,29.95,10.0,East,3.5,-,N/A,,Overcast,90,2013-07-14 22:15:00
5:35 PM,80.4,65.1,59,29.95,10.0,ENE,3.5,-,N/A,,Scattered Clouds,70,2013-07-14 22:35:00
5:55 PM,80.1,65.3,61,29.95,10.0,ENE,3.5,-,N/A,,Scattered Clouds,60,2013-07-14 22:55:00
6:15 PM,80.1,65.5,61,29.95,10.0,Calm,Calm,-,N/A,,Scattered Clouds,0,2013-07-14 23:15:00
6:35 PM,79.9,65.3,61,29.94,10.0,Calm,Calm,-,N/A,,Mostly Cloudy,0,2013-07-14 23:35:00
6:55 PM,80.1,65.1,60,29.93,10.0,ESE,3.5,-,N/A,,Mostly Cloudy,110,2013-07-14 23:55:00
7:15 PM,79.5,65.5,62,29.93,10.0,East,4.6,-,N/A,,Mostly Cloudy,80,2013-07-15 00:15:00
7:35 PM,79.2,65.7,63,29.93,10.0,East,4.6,-,N/A,,Mostly Cloudy,100,2013-07-15 00:35:00
7:55 PM,78.8,65.3,63,29.93,10.0,East,5.8,-,N/A,,Overcast,90,2013-07-15 00:55:00
8:15 PM,78.6,65.3,64,29.92,10.0,East,6.9,-,N/A,,Overcast,100,2013-07-15 01:15:00
8:35 PM,78.4,64.9,63,29.92,10.0,East,8.1,-,N/A,,Mostly Cloudy,80,2013-07-15 01:35:00
8:55 PM,78.1,65.3,65,29.93,10.0,ESE,4.6,-,N/A,,Overcast,110,2013-07-15 01:55:00
9:15 PM,77.9,65.3,65,29.93,10.0,ESE,4.6,-,N/A,,Overcast,120,2013-07-15 02:15:00
9:35 PM,77.7,65.3,65,29.93,7.0,East,5.8,-,N/A,,Overcast,100,2013-07-15 02:35:00
9:55 PM,77.9,65.5,65,29.94,10.0,East,6.9,-,N/A,,Overcast,90,2013-07-15 02:55:00
10:15 PM,77.5,65.5,66,29.94,10.0,East,6.9,-,N/A,,Overcast,80,2013-07-15 03:15:00
10:35 PM,77.7,65.7,66,29.95,10.0,East,6.9,-,N/A,,Overcast,90,2013-07-15 03:35:00
10:55 PM,77.2,66.0,68,29.96,10.0,SSE,5.8,-,N/A,Rain,Rain,160,2013-07-15 03:55:00
11:15 PM,73.9,66.7,78,29.97,5.0,Calm,Calm,-,0.09,Rain,Rain,0,2013-07-15 04:15:00
11:35 PM,72.1,68.7,89,29.98,2.5,SSW,5.8,-,0.12,Rain,Heavy Rain,200,2013-07-15 04:35:00
11:55 PM,71.1,68.2,91,29.98,5.0,Calm,Calm,-,0.14,Rain,Rain,0,2013-07-15 04:55:00